N0ZMJ-4 Weather Reports


Display with metric or nautical units.
time (UTC)temp
F
wind
direction
speed
MPH
gust
MPH
rain 1hr
in
rain 24hr
in
rain mn
in
humidity
%
barometer
mb
20260505030503 44 329 0.0 0.0 0.00 0.00 0.00 63 1007.5
20260505030003 44 329 0.0 0.0 0.00 0.00 0.00 62 1007.5
20260505025503 44 329 0.0 1.0 0.00 0.00 0.00 61 1007.5
20260505025004 45 328 0.0 1.0 0.00 0.00 0.00 60 1007.4
20260505024503 45 329 0.0 2.0 0.00 0.00 0.00 59 1007.4
20260505024002 45 328 0.0 2.0 0.00 0.00 0.00 58 1007.2
20260505023503 45 328 1.0 2.0 0.00 0.00 0.00 58 1007.1
20260505023002 46 328 0.0 3.0 0.00 0.00 0.00 57 1007.1
20260505022503 46 328 1.0 3.0 0.00 0.00 0.00 57 1007.1
20260505022003 46 328 1.0 2.0 0.00 0.00 0.00 56 1006.9
20260505021502 46 328 0.0 3.0 0.00 0.00 0.00 56 1006.9
20260505021003 46 328 2.0 4.0 0.00 0.00 0.00 56 1006.8
20260505020502 47 337 2.0 4.0 0.00 0.00 0.00 55 1006.8
20260505020003 47 357 2.0 4.0 0.00 0.00 0.00 54 1006.8
20260505015503 47 351 2.0 5.0 0.00 0.00 0.00 54 1006.6
20260505015003 48 349 2.0 5.0 0.00 0.00 0.00 53 1006.6
20260505014503 48 348 3.0 6.0 0.00 0.00 0.00 52 1006.5
20260505014002 49 343 3.0 8.0 0.00 0.00 0.00 51 1006.4
20260505013503 49 322 3.0 8.0 0.00 0.00 0.00 51 1006.5
20260505013002 50 327 3.0 7.0 0.00 0.00 0.00 50 1006.3
20260505012503 50 323 3.0 8.0 0.00 0.00 0.00 49 1006.3
20260505012002 50 337 2.0 9.0 0.00 0.00 0.00 49 1006.3
20260505011503 50 355 2.0 9.0 0.00 0.00 0.00 49 1006.1
20260505011003 51 331 2.0 8.0 0.00 0.00 0.00 49 1006.1
20260505010503 51 335 5.0 8.0 0.00 0.00 0.00 48 1006.0
20260505010003 51 327 3.0 11.0 0.00 0.00 0.00 48 1006.0
20260505005502 51 330 2.0 11.0 0.00 0.00 0.00 47 1006.0
20260505005004 51 320 4.0 13.0 0.00 0.00 0.00 48 1005.9
20260505004502 52 326 3.0 13.0 0.00 0.00 0.00 48 1005.7
20260505004003 52 322 4.0 9.0 0.00 0.00 0.00 49 1005.8
20260505003502 52 328 5.0 9.0 0.00 0.00 0.00 48 1005.8
20260505003003 52 336 3.0 9.0 0.00 0.00 0.00 49 1005.8
20260505002503 52 327 3.0 9.0 0.00 0.00 0.00 48 1005.8
20260505002003 52 332 2.0 11.0 0.00 0.00 0.00 48 1005.8
20260505001503 53 321 6.0 11.0 0.00 0.00 0.00 46 1005.6
20260505001003 53 301 4.0 12.0 0.00 0.00 0.00 47 1005.6
20260505000503 53 322 3.0 12.0 0.00 0.00 0.00 47 1005.7
20260505000002 52 340 3.0 9.0 0.00 0.00 0.00 48 1005.7
20260504235503 52 343 3.0 12.0 0.00 0.00 0.00 48 1005.6
20260504235002 52 329 7.0 12.0 0.00 0.00 0.00 46 1005.7
20260504234503 52 331 4.0 11.0 0.00 0.00 0.00 47 1005.7
20260504234003 53 332 4.0 13.0 0.00 0.00 0.00 47 1005.8
20260504233503 53 332 5.0 13.0 0.00 0.00 0.00 46 1005.7
20260504233003 53 325 5.0 12.0 0.00 0.00 0.00 47 1005.7
20260504232502 53 284 4.0 12.0 0.00 0.00 0.00 47 1005.6
20260504232003 53 311 3.0 13.0 0.00 0.00 0.00 48 1005.6
20260504231502 53 319 6.0 13.0 0.00 0.00 0.00 46 1005.6
20260504231003 53 302 5.0 12.0 0.00 0.00 0.00 47 1005.7
20260504230503 52 331 5.0 13.0 0.00 0.00 0.00 48 1005.7
20260504230003 52 319 5.0 13.0 0.00 0.00 0.00 47 1005.6
20260504225503 52 324 6.0 11.0 0.00 0.00 0.00 46 1005.7
20260504225003 53 316 4.0 12.0 0.00 0.00 0.00 48 1005.7
20260504224503 53 308 5.0 16.0 0.00 0.00 0.00 47 1005.6
20260504224002 53 308 6.0 21.0 0.00 0.00 0.00 47 1005.6
20260504223503 53 323 7.0 21.0 0.00 0.00 0.00 46 1005.5
20260504223003 53 314 6.0 17.0 0.00 0.00 0.00 47 1005.7
20260504222503 53 309 6.0 17.0 0.00 0.00 0.00 48 1005.6
20260504222003 53 305 4.0 15.0 0.00 0.00 0.00 48 1005.7
20260504221503 53 305 6.0 17.0 0.00 0.00 0.00 48 1005.7
20260504221003 53 323 5.0 17.0 0.00 0.00 0.00 48 1005.6
20260504220503 53 311 4.0 15.0 0.00 0.00 0.00 50 1005.7
20260504220003 53 299 5.0 18.0 0.00 0.00 0.00 50 1005.8
20260504215503 52 324 5.0 18.0 0.00 0.00 0.00 50 1005.7
20260504215003 53 315 6.0 15.0 0.00 0.00 0.00 50 1005.8
20260504214503 53 312 6.0 15.0 0.00 0.00 0.00 51 1005.7
20260504214003 53 313 5.0 16.0 0.00 0.00 0.00 50 1005.7
20260504213503 53 319 5.0 16.0 0.00 0.00 0.00 51 1005.7
20260504213003 53 301 5.0 15.0 0.00 0.00 0.00 51 1005.8
20260504212503 53 320 7.0 15.0 0.00 0.00 0.00 51 1005.7
20260504212002 53 315 7.0 19.0 0.00 0.00 0.00 51 1005.6